When you browse on this site, cookies collect data to enhance your experience and personalize the content and advertising you see.
Visit our Privacy Policy to learn more. By continuing to use the site, you agree to this use of cookies and data.
  • In Romania
  • List of Countries
  • For 7 days
  • Water Temperature
  • Satellite Maps
  • Weather Map
  • Weather Widgets
  • user-avatar
    Login

    Hourly Weather Maloe Vishene

    Today, 18 June, Tuesday

    Time Temperature Precipitation Wind Pressure Humidity
    00:00 +17°C° 0 mm 2 mps 738 mmHg 85%
    01:00 +17°C° 0 mm 2 mps 738 mmHg 84%
    02:00 +17°C° 0 mm 2 mps 738 mmHg 84%
    03:00 +17°C° 0 mm 2 mps 739 mmHg 84%
    04:00 +17°C° 0 mm 2 mps 739 mmHg 83%
    05:00 +17°C° 0 mm 2 mps 739 mmHg 82%
    06:00 +19°C° 0 mm 3 mps 739 mmHg 75%
    07:00 +20°C° 0 mm 3 mps 739 mmHg 67%
    08:00 +22°C° 0 mm 3 mps 739 mmHg 59%
    09:00 +24°C° 0.2 mm 3 mps 739 mmHg 58%
    10:00 +24°C° 0.2 mm 3 mps 739 mmHg 56%
    11:00 +25°C° 0.2 mm 4 mps 739 mmHg 55%
    12:00 +25°C° 0.1 mm 4 mps 739 mmHg 51%
    13:00 +26°C° 0.1 mm 4 mps 739 mmHg 46%
    14:00 +26°C° 0.1 mm 5 mps 739 mmHg 42%
    15:00 +26°C° 0 mm 4 mps 739 mmHg 43%
    16:00 +25°C° 0 mm 4 mps 739 mmHg 43%
    17:00 +23°C° 0 mm 4 mps 739 mmHg 44%
    18:00 +21°C° 0 mm 3 mps 739 mmHg 53%
    19:00 +20°C° 0 mm 3 mps 739 mmHg 61%
    20:00 +18°C° 0 mm 2 mps 739 mmHg 70%
    21:00 +17°C° 0 mm 2 mps 740 mmHg 72%
    22:00 +16°C° 0 mm 2 mps 740 mmHg 75%
    23:00 +16°C° 0 mm 2 mps 740 mmHg 77%

    Tomorrow, 19 June, Wednesday

    Time Temperature Precipitation Wind Pressure Humidity
    00:00 +15°C° 0 mm 2 mps 740 mmHg 79%
    01:00 +14°C° 0 mm 2 mps 741 mmHg 81%
    02:00 +14°C° 0 mm 2 mps 741 mmHg 84%
    03:00 +14°C° 0 mm 2 mps 741 mmHg 81%
    04:00 +15°C° 0 mm 2 mps 741 mmHg 78%
    05:00 +15°C° 0 mm 2 mps 741 mmHg 75%
    06:00 +17°C° 0 mm 2 mps 741 mmHg 68%
    07:00 +19°C° 0 mm 2 mps 742 mmHg 61%
    08:00 +21°C° 0 mm 3 mps 742 mmHg 54%
    09:00 +23°C° 0 mm 2 mps 742 mmHg 50%
    10:00 +25°C° 0 mm 2 mps 742 mmHg 45%
    11:00 +26°C° 0 mm 2 mps 742 mmHg 41%
    12:00 +27°C° 0 mm 2 mps 742 mmHg 40%
    13:00 +27°C° 0 mm 2 mps 742 mmHg 38%
    14:00 +28°C° 0 mm 2 mps 742 mmHg 37%
    15:00 +27°C° 0 mm 2 mps 742 mmHg 39%
    16:00 +27°C° 0 mm 2 mps 741 mmHg 42%
    17:00 +27°C° 0 mm 2 mps 741 mmHg 44%
    18:00 +24°C° 0 mm 2 mps 741 mmHg 52%
    19:00 +21°C° 0 mm 2 mps 741 mmHg 60%
    20:00 +20°C° 0 mm 1 mps 741 mmHg 67%
    21:00 +19°C° 0 mm 1 mps 741 mmHg 68%
    22:00 +16°C° 0 mm 1 mps 741 mmHg 69%
    23:00 +15°C° 0 mm 1 mps 742 mmHg 70%

    Day after tomorrow, 20 June, Thursday

    Time Temperature Precipitation Wind Pressure Humidity
    00:00 +15°C° 0 mm 1 mps 742 mmHg 70%
    01:00 +14°C° 0 mm 1 mps 742 mmHg 71%
    02:00 +14°C° 0 mm 1 mps 741 mmHg 71%
    03:00 +15°C° 0 mm 1 mps 742 mmHg 71%
    04:00 +16°C° 0 mm 1 mps 742 mmHg 71%
    05:00 +16°C° 0 mm 1 mps 742 mmHg 71%
    06:00 +20°C° 0 mm 1 mps 742 mmHg 64%
    07:00 +22°C° 0 mm 1 mps 742 mmHg 57%
    08:00 +24°C° 0 mm 1 mps 742 mmHg 51%
    09:00 +25°C° 0 mm 1 mps 742 mmHg 46%
    10:00 +27°C° 0 mm 1 mps 742 mmHg 42%
    11:00 +28°C° 0 mm 2 mps 742 mmHg 37%
    12:00 +28°C° 0 mm 2 mps 742 mmHg 36%
    13:00 +29°C° 0 mm 2 mps 742 mmHg 35%
    14:00 +29°C° 0 mm 2 mps 741 mmHg 34%
    15:00 +29°C° 0 mm 2 mps 741 mmHg 40%
    16:00 +28°C° 0 mm 2 mps 741 mmHg 46%
    17:00 +28°C° 0 mm 2 mps 741 mmHg 52%
    18:00 +26°C° 0 mm 2 mps 741 mmHg 59%
    19:00 +24°C° 0 mm 2 mps 741 mmHg 66%
    20:00 +21°C° 0 mm 2 mps 740 mmHg 73%
    21:00 +20°C° 0 mm 2 mps 741 mmHg 73%
    22:00 +19°C° 0 mm 2 mps 741 mmHg 73%
    23:00 +18°C° 0 mm 2 mps 741 mmHg 74%

    21 June, Friday

    Time Temperature Precipitation Wind Pressure Humidity
    00:00 +18°C° 0 mm 2 mps 741 mmHg 75%
    01:00 +18°C° 0 mm 2 mps 741 mmHg 77%
    02:00 +18°C° 0 mm 2 mps 741 mmHg 78%
    03:00 +18°C° 0 mm 2 mps 741 mmHg 79%
    04:00 +18°C° 0 mm 2 mps 741 mmHg 79%
    05:00 +18°C° 0 mm 2 mps 741 mmHg 79%
    06:00 +20°C° 0 mm 2 mps 741 mmHg 74%
    07:00 +23°C° 0 mm 2 mps 741 mmHg 68%
    08:00 +25°C° 0 mm 3 mps 741 mmHg 63%
    09:00 +25°C° 0 mm 3 mps 741 mmHg 59%
    10:00 +26°C° 0 mm 3 mps 741 mmHg 55%
    11:00 +27°C° 0 mm 4 mps 741 mmHg 51%
    12:00 +27°C° 0 mm 4 mps 741 mmHg 51%
    13:00 +27°C° 0 mm 4 mps 741 mmHg 51%
    14:00 +28°C° 0 mm 4 mps 741 mmHg 50%
    15:00 +27°C° 0 mm 4 mps 740 mmHg 55%
    16:00 +26°C° 0 mm 3 mps 740 mmHg 59%
    17:00 +26°C° 0 mm 3 mps 740 mmHg 63%
    18:00 +24°C° 0.1 mm 3 mps 740 mmHg 71%
    19:00 +22°C° 0.1 mm 3 mps 740 mmHg 79%
    20:00 +20°C° 0.1 mm 2 mps 740 mmHg 87%
    21:00 +20°C° 0 mm 2 mps 740 mmHg 90%
    22:00 +19°C° 0 mm 2 mps 740 mmHg 93%
    23:00 +18°C° 0 mm 2 mps 740 mmHg 96%

    22 June, Saturday

    Time Temperature Precipitation Wind Pressure Humidity
    00:00 +18°C° 0 mm 2 mps 740 mmHg 96%
    01:00 +18°C° 0 mm 2 mps 740 mmHg 97%
    02:00 +18°C° 0 mm 2 mps 739 mmHg 98%
    03:00 +18°C° 0.4 mm 2 mps 739 mmHg 98%
    04:00 +18°C° 0.4 mm 2 mps 739 mmHg 98%
    05:00 +19°C° 0.4 mm 2 mps 739 mmHg 98%
    06:00 +19°C° 0.2 mm 2 mps 739 mmHg 96%
    07:00 +20°C° 0.2 mm 2 mps 739 mmHg 95%
    08:00 +21°C° 0.2 mm 2 mps 739 mmHg 94%
    09:00 +22°C° 0.1 mm 3 mps 739 mmHg 87%
    10:00 +25°C° 0.1 mm 3 mps 739 mmHg 81%
    11:00 +26°C° 0.1 mm 3 mps 738 mmHg 75%
    12:00 +26°C° 1.3 mm 3 mps 738 mmHg 77%
    13:00 +26°C° 1.3 mm 3 mps 738 mmHg 79%
    14:00 +27°C° 1.3 mm 4 mps 738 mmHg 82%
    15:00 +26°C° 1 mm 3 mps 737 mmHg 83%
    16:00 +25°C° 1 mm 3 mps 737 mmHg 85%
    17:00 +24°C° 1 mm 2 mps 737 mmHg 86%
    18:00 +24°C° 0.1 mm 2 mps 738 mmHg 88%
    19:00 +23°C° 0.1 mm 2 mps 738 mmHg 90%
    20:00 +21°C° 0.1 mm 2 mps 738 mmHg 92%
    21:00 +21°C° 0.1 mm 2 mps 738 mmHg 94%
    22:00 +20°C° 0.1 mm 2 mps 739 mmHg 96%
    23:00 +19°C° 0.1 mm 2 mps 739 mmHg 97%

    23 June, Sunday

    Time Temperature Precipitation Wind Pressure Humidity
    00:00 +18°C° 0 mm 2 mps 740 mmHg 96%
    01:00 +18°C° 0 mm 3 mps 740 mmHg 96%
    02:00 +17°C° 0 mm 3 mps 740 mmHg 95%
    03:00 +16°C° 0 mm 3 mps 741 mmHg 94%
    04:00 +16°C° 0 mm 2 mps 741 mmHg 93%
    05:00 +15°C° 0 mm 2 mps 741 mmHg 92%
    06:00 +16°C° 0 mm 2 mps 742 mmHg 83%
    07:00 +17°C° 0 mm 2 mps 742 mmHg 75%
    08:00 +19°C° 0 mm 2 mps 743 mmHg 67%
    09:00 +20°C° 0 mm 2 mps 743 mmHg 61%
    10:00 +21°C° 0 mm 2 mps 743 mmHg 55%
    11:00 +24°C° 0 mm 1 mps 743 mmHg 49%
    12:00 +24°C° 0 mm 2 mps 743 mmHg 47%
    13:00 +25°C° 0 mm 2 mps 743 mmHg 45%
    14:00 +25°C° 0 mm 2 mps 743 mmHg 43%
    15:00 +25°C° 0 mm 2 mps 742 mmHg 45%
    16:00 +24°C° 0 mm 2 mps 742 mmHg 47%
    17:00 +24°C° 0 mm 2 mps 742 mmHg 49%
    18:00 +21°C° 0 mm 2 mps 742 mmHg 53%
    19:00 +20°C° 0 mm 2 mps 742 mmHg 57%
    20:00 +18°C° 0 mm 2 mps 742 mmHg 61%
    21:00 +17°C° 0.3 mm 2 mps 742 mmHg 69%
    22:00 +16°C° 0.3 mm 2 mps 742 mmHg 78%
    23:00 +14°C° 0.3 mm 2 mps 742 mmHg 86%
    Show more